Sturgeon Bay, WI

3:05 AM CDT on March 30, 2017 (GMT -0500)
Door County Cherryland

Weather History for KSUE - February, 2014

Change the Weather History Date:

Saturday, February 8, 2014

  Actual Average Record
Temperature  
Mean Temperature 8 °F -  
Max Temperature 15 °F 26 °F 46 °F (1991)
Min Temperature 0 °F 8 °F -19 °F (1934)
Degree Days  
Heating Degree Days 58    
Moisture  
Dew Point -1 °F    
Average Humidity 67    
Maximum Humidity 85    
Minimum Humidity 52    
Precipitation  
Precipitation 0.00 in - - ()
Sea Level Pressure  
Sea Level Pressure 30.15 in    
Wind  
Wind Speed 9 mph (WSW)    
Max Wind Speed 14 mph    
Max Gust Speed -    
Visibility 10 miles    
Events      
Averages and records for this station are not official NWS values.
T = Trace of Precipitation, MM = Missing Value Source: NWS Daily Summary

Daily Weather History Graph

Daily Weather History Graph

Search for Another Location

Airport or City:

Trip Planner

Search our weather history database for the weather conditions in past years. The results will help you decide how hot, cold, wet, or windy it might be!

Date:

Astronomy

Feb. 08, 2014 Rise Set
Actual Time 7:00 AM CST 5:08 PM CST
Civil Twilight 6:29 AM CST 5:38 PM CST
Nautical Twilight 5:55 AM CST 6:13 PM CST
Astronomical Twilight 5:21 AM CST 6:47 PM CST
Moon 11:57 AM CST (2/8) 2:16 AM CST (2/8)
Length of Visible Light 11h 09m
Length of Day
10h 07m
Waxing Gibbous, 69% of the Moon is Illuminated
Feb 8
Waxing Gibbous
Feb 14
Full
Feb 22
Last Quarter
Mar 1
New
Mar 8
First Quarter

Hourly Weather History & Observations

Time (CST) Temp. Windchill Dew Point Humidity Pressure Visibility Wind Dir Wind Speed Gust Speed Precip Events Conditions
12:15 AM 6.8 °F -10.0 °F -7.6 °F 52% 30.18 in 10.0 mi WSW 13.8 mph - N/A   Clear
12:35 AM 6.8 °F -8.6 °F -5.8 °F 56% 30.18 in 10.0 mi West 11.5 mph - N/A   Clear
12:55 AM 6.8 °F -8.6 °F -5.8 °F 56% 30.18 in 10.0 mi WSW 11.5 mph - N/A   Clear
1:15 AM 5.0 °F -10.8 °F -5.8 °F 61% 30.18 in 10.0 mi WSW 11.5 mph - N/A   Clear
1:35 AM 5.0 °F -11.6 °F -5.8 °F 61% 30.18 in 10.0 mi WSW 12.7 mph - N/A   Clear
1:55 AM 3.2 °F -12.2 °F -5.8 °F 66% 30.18 in 10.0 mi WSW 10.4 mph - N/A   Clear
2:15 AM 3.2 °F -12.2 °F -5.8 °F 66% 30.18 in 10.0 mi West 10.4 mph - N/A   Clear
2:35 AM 3.2 °F -12.2 °F -5.8 °F 66% 30.18 in 10.0 mi WSW 10.4 mph - N/A   Clear
2:55 AM 3.2 °F -12.2 °F -5.8 °F 66% 30.18 in 10.0 mi WSW 10.4 mph - N/A   Clear
3:15 AM 3.2 °F -12.2 °F -5.8 °F 66% 30.18 in 10.0 mi WSW 10.4 mph - N/A   Clear
3:35 AM 1.4 °F -13.5 °F -5.8 °F 72% 30.19 in 10.0 mi WSW 9.2 mph - N/A   Clear
3:55 AM 1.4 °F -13.5 °F -5.8 °F 72% 30.18 in 10.0 mi WSW 9.2 mph - N/A   Clear
4:15 AM 1.4 °F -15.3 °F -5.8 °F 72% 30.19 in 10.0 mi WSW 11.5 mph - N/A   Clear
4:35 AM 1.4 °F -14.5 °F -4.0 °F 78% 30.19 in 10.0 mi WSW 10.4 mph - N/A   Clear
4:55 AM 1.4 °F -14.5 °F -5.8 °F 72% 30.19 in 10.0 mi WSW 10.4 mph - N/A   Clear
5:15 AM 1.4 °F -14.5 °F -5.8 °F 72% 30.18 in 10.0 mi WSW 10.4 mph - N/A   Clear
5:35 AM 1.4 °F -12.5 °F -5.8 °F 72% 30.18 in 10.0 mi WSW 8.1 mph - N/A   Clear
5:55 AM 1.4 °F -13.5 °F -5.8 °F 72% 30.18 in 10.0 mi WSW 9.2 mph - N/A   Clear
6:15 AM -0.4 °F -13.4 °F -5.8 °F 78% 30.18 in 10.0 mi West 6.9 mph - N/A   Clear
6:35 AM -0.4 °F -12.0 °F -7.6 °F 72% 30.18 in 10.0 mi West 5.8 mph - N/A   Clear
6:55 AM -0.4 °F -14.7 °F -5.8 °F 78% 30.17 in 10.0 mi West 8.1 mph - N/A   Clear
7:15 AM -0.4 °F -14.7 °F -4.0 °F 85% 30.17 in 10.0 mi West 8.1 mph - N/A   Clear
7:35 AM 1.4 °F -12.5 °F -4.0 °F 78% 30.19 in 10.0 mi SW 8.1 mph - N/A   Clear
7:55 AM 1.4 °F -11.3 °F -4.0 °F 78% 30.19 in 10.0 mi SW 6.9 mph - N/A   Clear
8:15 AM 1.4 °F -11.3 °F -5.8 °F 72% 30.19 in 10.0 mi SW 6.9 mph - N/A   Clear
8:35 AM 1.4 °F -12.5 °F -2.2 °F 85% 30.19 in 10.0 mi SW 8.1 mph - N/A   Clear
8:55 AM 3.2 °F -10.3 °F -4.0 °F 72% 30.20 in 10.0 mi SW 8.1 mph - N/A   Clear
9:15 AM 3.2 °F -10.3 °F -2.2 °F 78% 30.20 in 10.0 mi WSW 8.1 mph - N/A   Clear
9:35 AM 5.0 °F -9.1 °F -0.4 °F 78% 30.20 in 10.0 mi WSW 9.2 mph - N/A   Clear
9:55 AM 5.0 °F -6.9 °F -2.2 °F 72% 30.19 in 10.0 mi WSW 6.9 mph - N/A   Clear
10:15 AM 6.8 °F -3.5 °F -0.4 °F 72% 30.18 in 10.0 mi WSW 5.8 mph - N/A   Clear
10:35 AM 6.8 °F -0.1 °F -0.4 °F 72% 30.18 in 10.0 mi WSW 3.5 mph - N/A   Clear
10:55 AM 8.6 °F -1.3 °F -0.4 °F 67% 30.18 in 10.0 mi SW 5.8 mph - N/A   Clear
11:15 AM 8.6 °F -1.3 °F 1.4 °F 73% 30.18 in 10.0 mi West 5.8 mph - N/A   Clear
11:35 AM 10.4 °F -0.4 °F 1.4 °F 67% 30.18 in 10.0 mi West 6.9 mph - N/A   Clear
11:55 AM 10.4 °F 2.2 °F 1.4 °F 67% 30.17 in 10.0 mi WSW 4.6 mph - N/A   Clear
12:15 PM 12.2 °F 1.7 °F 1.4 °F 62% 30.16 in 10.0 mi West 6.9 mph - N/A   Clear
12:35 PM 12.2 °F 4.3 °F 1.4 °F 62% 30.15 in 10.0 mi West 4.6 mph - N/A   Clear
12:55 PM 12.2 °F 2.9 °F 3.2 °F 67% 30.15 in 10.0 mi SSW 5.8 mph - N/A   Clear
1:15 PM 12.2 °F 1.7 °F 3.2 °F 67% 30.14 in 10.0 mi SSW 6.9 mph - N/A   Clear
1:35 PM 12.2 °F 0.7 °F 3.2 °F 67% 30.13 in 10.0 mi SSW 8.1 mph - N/A   Clear
1:55 PM 12.2 °F 1.7 °F 3.2 °F 67% 30.12 in 10.0 mi SSW 6.9 mph - N/A   Clear
2:15 PM 14.0 °F 2.9 °F 1.4 °F 57% 30.12 in 10.0 mi SSW 8.1 mph - N/A   Clear
2:35 PM 14.0 °F 2.9 °F 1.4 °F 57% 30.12 in 10.0 mi SW 8.1 mph - N/A   Clear
2:55 PM 14.0 °F 1.2 °F 1.4 °F 57% 30.12 in 10.0 mi SW 10.4 mph - N/A   Clear
3:15 PM 15.8 °F 1.4 °F 1.4 °F 53% 30.11 in 10.0 mi SSW 13.8 mph - N/A   Clear
3:35 PM 14.0 °F 0.5 °F 1.4 °F 57% 30.11 in 10.0 mi SSW 11.5 mph - N/A   Clear
3:55 PM 14.0 °F 2.0 °F 1.4 °F 57% 30.11 in 10.0 mi SW 9.2 mph - N/A   Clear
4:15 PM 14.0 °F 3.9 °F 1.4 °F 57% 30.11 in 10.0 mi SW 6.9 mph - N/A   Clear
4:35 PM 14.0 °F 6.5 °F 1.4 °F 57% 30.11 in 10.0 mi SSW 4.6 mph - N/A   Clear
4:55 PM 12.2 °F 1.7 °F -0.4 °F 57% 30.12 in 10.0 mi SW 6.9 mph - N/A   Mostly Cloudy
5:15 PM 12.2 °F 2.9 °F -0.4 °F 57% 30.12 in 10.0 mi SW 5.8 mph - N/A   Overcast
5:35 PM 12.2 °F 6.1 °F -0.4 °F 57% 30.12 in 10.0 mi WSW 3.5 mph - N/A   Overcast
5:55 PM 12.2 °F 4.3 °F -0.4 °F 57% 30.11 in 10.0 mi SW 4.6 mph - N/A   Overcast
6:15 PM 12.2 °F 2.9 °F 1.4 °F 62% 30.11 in 10.0 mi SW 5.8 mph - N/A   Overcast
6:35 PM 12.2 °F 2.9 °F 1.4 °F 62% 30.11 in 10.0 mi SW 5.8 mph - N/A   Overcast
6:55 PM 12.2 °F 4.3 °F 1.4 °F 62% 30.11 in 10.0 mi SW 4.6 mph - N/A   Overcast
7:15 PM 12.2 °F 2.9 °F 1.4 °F 62% 30.11 in 10.0 mi SW 5.8 mph - N/A   Overcast
7:35 PM 12.2 °F 1.7 °F 3.2 °F 67% 30.11 in 10.0 mi SW 6.9 mph - N/A   Overcast
7:55 PM 12.2 °F 4.3 °F 3.2 °F 67% 30.11 in 10.0 mi SW 4.6 mph - N/A   Overcast
8:15 PM 12.2 °F 4.3 °F 3.2 °F 67% 30.11 in 10.0 mi SW 4.6 mph - N/A   Overcast
8:35 PM 12.2 °F 6.1 °F 3.2 °F 67% 30.11 in 10.0 mi SW 3.5 mph - N/A   Overcast
8:55 PM 10.4 °F 4.0 °F 3.2 °F 73% 30.10 in 10.0 mi SW 3.5 mph - N/A   Overcast
9:15 PM 10.4 °F - 3.2 °F 73% 30.10 in 10.0 mi Calm Calm - N/A   Overcast
9:35 PM 10.4 °F 2.2 °F 3.2 °F 73% 30.10 in 10.0 mi WSW 4.6 mph - N/A   Overcast
9:55 PM 10.4 °F 2.2 °F 3.2 °F 73% 30.10 in 10.0 mi WSW 4.6 mph - N/A   Overcast
10:15 PM 10.4 °F -0.4 °F 3.2 °F 73% 30.10 in 10.0 mi WSW 6.9 mph - N/A   Overcast
10:35 PM 10.4 °F -0.4 °F 3.2 °F 73% 30.10 in 10.0 mi WSW 6.9 mph - N/A   Overcast
10:55 PM 10.4 °F 2.2 °F 3.2 °F 73% 30.10 in 10.0 mi West 4.6 mph - N/A   Overcast
11:15 PM 10.4 °F -0.4 °F 3.2 °F 73% 30.10 in 10.0 mi WSW 6.9 mph - N/A   Overcast
11:35 PM 10.4 °F -0.4 °F 3.2 °F 73% 30.10 in 10.0 mi West 6.9 mph - N/A   Overcast
11:55 PM 10.4 °F 0.8 °F 3.2 °F 73% 30.09 in 10.0 mi West 5.8 mph - N/A   Overcast